This is the latest recevied weather packets stored in our database for station/object KF5WCW-1. If no packets are shown the sender has not sent any weather packets the latest 10 day(s).
| Time | Temp. | Humidity | Pressure | Rain* | Wind** | Luminosity | Snow |
|---|---|---|---|---|---|---|---|
| 1777734076 | 6.11° C | 63% | 0 hPa | 0 mm | - | - | - |
| 1777733776 | 5.56° C | 65% | 0 hPa | 0 mm | - | - | - |
| 1777733476 | 5° C | 66% | 0 hPa | 0 mm | - | - | - |
| 1777733176 | 5° C | 67% | 0 hPa | 0 mm | - | - | - |
| 1777732876 | 4.44° C | 68% | 0 hPa | 0 mm | - | - | - |
| 1777732576 | 3.89° C | 70% | 0 hPa | 0 mm | - | - | - |
| 1777732276 | 3.89° C | 70% | 0 hPa | 0 mm | - | - | - |
| 1777731976 | 3.89° C | 71% | 0 hPa | 0 mm | - | - | - |
| 1777731676 | 3.89° C | 73% | 0 hPa | 0 mm | - | - | - |
| 1777731376 | 3.33° C | 74% | 0 hPa | 0 mm | - | - | - |
| 1777731076 | 3.33° C | 74% | 0 hPa | 0 mm | - | - | - |
| 1777730776 | 3.33° C | 74% | 0 hPa | 0 mm | - | - | - |
| 1777730476 | 3.33° C | 76% | 0 hPa | 0 mm | - | - | - |
| 1777730176 | 3.33° C | 74% | 0 hPa | 0 mm | - | - | - |
| 1777729876 | 2.78° C | 76% | 0 hPa | 0 mm | - | - | - |
| 1777729576 | 2.78° C | 76% | 0 hPa | 0 mm | - | - | - |
| 1777729276 | 2.78° C | 76% | 0 hPa | 0 mm | - | - | - |
| 1777728976 | 2.22° C | 76% | 0 hPa | 0 mm | - | - | - |
| 1777728676 | 1.67° C | 78% | 0 hPa | 0 mm | - | - | - |
| 1777728376 | 1.67° C | 78% | 0 hPa | 0 mm | - | - | - |
| 1777728076 | 1.11° C | 81% | 0 hPa | 0 mm | - | - | - |
| 1777727776 | 1.11° C | 81% | 0 hPa | 0 mm | - | - | - |
| 1777727476 | 0.56° C | 82% | 0 hPa | 0 mm | - | - | - |
| 1777727176 | 0.56° C | 81% | 0 hPa | 0 mm | - | - | - |
| 1777726876 | 0.56° C | 81% | 0 hPa | 0 mm | - | - | - |
* Rain latest hour (hover to see other rain measurements)
** Current wind speed in m/s (hover to see current wind gust speed)